| time (UTC) | temp F | wind direction | speed knots | gust knots | rain 1hr in | rain 24hr in | rain mn in | humidity % | barometer mb |
| 20260506111600 | 54 | 238 | 0.9 | 3.5 | 0.01 | 0.58 | 0.12 | 97 | 1005.4 |
| 20260506110528 | 54 | 248 | 0.0 | 1.7 | 0.01 | 0.58 | 0.12 | 97 | 1005.5 |
| 20260506105600 | 54 | 0.0 | 0.0 | 0.01 | 0.58 | 0.12 | 98 | 1005.5 | |
| 20260506104624 | 53 | 231 | 0.9 | 1.7 | 0.01 | 0.58 | 0.12 | 97 | 1005.6 |
| 20260506103546 | 54 | 0.0 | 0.0 | 0.00 | 0.57 | 0.11 | 97 | 1005.6 | |
| 20260506102617 | 54 | 0.0 | 0.0 | 0.00 | 0.57 | 0.11 | 97 | 1005.6 | |
| 20260506101545 | 54 | 231 | 0.0 | 1.7 | 0.00 | 0.57 | 0.11 | 97 | 1005.4 |
| 20260506100617 | 55 | 0.0 | 0.0 | 0.00 | 0.57 | 0.11 | 98 | 1005.5 | |
| 20260506095539 | 54 | 203 | 0.9 | 3.5 | 0.00 | 0.57 | 0.11 | 98 | 1005.4 |
| 20260506094605 | 54 | 252 | 0.9 | 3.5 | 0.00 | 0.57 | 0.11 | 99 | 1005.5 |
| 20260506093529 | 53 | 248 | 1.7 | 3.5 | 0.00 | 0.57 | 0.11 | 99 | 1005.5 |
| 20260506092552 | 52 | 240 | 1.7 | 3.5 | 0.00 | 0.57 | 0.11 | 99 | 1005.4 |
| 20260506091619 | 52 | 258 | 0.9 | 3.5 | 0.01 | 0.57 | 0.11 | 99 | 1005.4 |
| 20260506090549 | 53 | 243 | 0.9 | 3.5 | 0.01 | 0.57 | 0.11 | 99 | 1005.3 |
| 20260506085619 | 52 | 254 | 0.0 | 1.7 | 0.01 | 0.57 | 0.11 | 99 | 1005.3 |
| 20260506084550 | 52 | 218 | 0.0 | 3.5 | 0.01 | 0.57 | 0.11 | 99 | 1005.3 |
| 20260506083620 | 52 | 246 | 0.9 | 3.5 | 0.01 | 0.57 | 0.11 | 99 | 1005.2 |
| 20260506082550 | 52 | 248 | 0.0 | 1.7 | 0.01 | 0.57 | 0.11 | 99 | 1005.1 |
| 20260506081620 | 51 | 257 | 0.9 | 3.5 | 0.00 | 0.56 | 0.09 | 99 | 1005.1 |
| 20260506080550 | 51 | 193 | 0.0 | 1.7 | 0.00 | 0.56 | 0.09 | 99 | 1005.2 |
| 20260506072550 | 51 | 249 | 0.9 | 1.7 | 0.00 | 0.56 | 0.09 | 99 | 1005.0 |
| 20260506071620 | 51 | 259 | 0.9 | 1.7 | 0.00 | 0.56 | 0.09 | 99 | 1004.9 |
| 20260506070550 | 51 | 276 | 1.7 | 3.5 | 0.00 | 0.56 | 0.09 | 99 | 1004.9 |
| 20260506061620 | 51 | 250 | 0.9 | 3.5 | 0.00 | 0.56 | 0.09 | 99 | 1004.8 |
| 20260506060549 | 51 | 278 | 0.9 | 3.5 | 0.00 | 0.56 | 0.09 | 99 | 1004.7 |
| 20260506050550 | 51 | 0.0 | 0.0 | 0.00 | 0.56 | 0.09 | 99 | 1004.8 | |
| 20260506044550 | 51 | 262 | 0.0 | 1.7 | 0.00 | 0.56 | 0.09 | 99 | 1004.8 |
| 20260506043621 | 51 | 270 | 0.0 | 1.7 | 0.00 | 0.56 | 0.09 | 99 | 1004.9 |
| 20260506041624 | 51 | 252 | 0.9 | 1.7 | 0.00 | 0.56 | 0.09 | 99 | 1004.9 |
| 20260506040544 | 51 | 240 | 0.9 | 1.7 | 0.00 | 0.56 | 0.09 | 99 | 1004.9 |
| 20260506035615 | 51 | 239 | 0.9 | 1.7 | 0.00 | 0.56 | 0.09 | 99 | 1004.9 |
| 20260506034544 | 51 | 255 | 0.9 | 1.7 | 0.00 | 0.56 | 0.09 | 99 | 1005.0 |
| 20260506033615 | 51 | 261 | 1.7 | 3.5 | 0.00 | 0.56 | 0.09 | 99 | 1005.0 |
| 20260506032544 | 51 | 244 | 0.9 | 3.5 | 0.00 | 0.56 | 0.09 | 99 | 1004.8 |
| 20260506031616 | 51 | 245 | 1.7 | 3.5 | 0.00 | 0.56 | 0.09 | 99 | 1004.8 |
| 20260506030544 | 51 | 0.0 | 0.0 | 0.00 | 0.56 | 0.09 | 99 | 1004.9 | |
| 20260506025616 | 51 | 0.0 | 0.0 | 0.00 | 0.56 | 0.09 | 99 | 1005.0 | |
| 20260506024540 | 51 | 0.0 | 0.0 | 0.00 | 0.56 | 0.09 | 99 | 1005.1 | |
| 20260506023601 | 51 | 0.0 | 1.7 | 0.00 | 0.56 | 0.09 | 99 | 1005.2 | |
| 20260506022620 | 51 | 248 | 0.0 | 1.7 | 0.00 | 0.56 | 0.09 | 99 | 1005.1 |
| 20260506021548 | 51 | 269 | 0.9 | 1.7 | 0.00 | 0.56 | 0.09 | 99 | 1005.3 |
| 20260506020619 | 52 | 229 | 0.9 | 1.7 | 0.00 | 0.56 | 0.09 | 99 | 1005.2 |
| 20260506015547 | 52 | 257 | 0.9 | 3.5 | 0.00 | 0.56 | 0.09 | 99 | 1005.3 |
| 20260506014613 | 52 | 274 | 0.9 | 1.7 | 0.00 | 0.56 | 0.09 | 99 | 1005.4 |
| 20260506013541 | 52 | 247 | 0.9 | 3.5 | 0.01 | 0.56 | 0.09 | 99 | 1005.3 |
| 20260506012612 | 52 | 281 | 0.9 | 1.7 | 0.01 | 0.56 | 0.09 | 99 | 1005.3 |
| 20260506011535 | 53 | 282 | 0.9 | 3.5 | 0.01 | 0.56 | 0.09 | 99 | 1005.4 |
| 20260506010605 | 53 | 256 | 1.7 | 3.5 | 0.01 | 0.56 | 0.09 | 99 | 1005.4 |
| 20260506005624 | 53 | 253 | 0.9 | 3.5 | 0.02 | 0.56 | 0.09 | 99 | 1005.3 |
| 20260506004552 | 53 | 236 | 1.7 | 3.5 | 0.06 | 0.56 | 0.09 | 99 | 1005.5 |
| 20260506003622 | 53 | 266 | 1.7 | 5.2 | 0.05 | 0.54 | 0.08 | 99 | 1005.3 |
| 20260506002552 | 53 | 252 | 0.9 | 3.5 | 0.05 | 0.54 | 0.08 | 99 | 1005.5 |
| 20260506001622 | 53 | 260 | 0.9 | 1.7 | 0.05 | 0.54 | 0.08 | 99 | 1005.5 |
| 20260506000552 | 53 | 225 | 0.9 | 1.7 | 0.05 | 0.54 | 0.08 | 99 | 1005.5 |
| 20260505235623 | 53 | 244 | 0.9 | 1.7 | 0.05 | 0.53 | 0.07 | 99 | 1005.7 |
| 20260505234552 | 53 | 248 | 0.0 | 1.7 | 0.02 | 0.50 | 0.04 | 99 | 1005.8 |
| 20260505233622 | 53 | 274 | 0.9 | 1.7 | 0.02 | 0.50 | 0.04 | 99 | 1005.8 |
| 20260505232552 | 53 | 257 | 0.9 | 1.7 | 0.02 | 0.50 | 0.04 | 99 | 1005.9 |
| 20260505231622 | 53 | 0.0 | 1.7 | 0.02 | 0.50 | 0.04 | 99 | 1005.8 | |
| 20260505230552 | 54 | 0.0 | 0.0 | 0.04 | 0.50 | 0.04 | 99 | 1005.8 | |
| 20260505225622 | 54 | 0.0 | 0.0 | 0.02 | 0.48 | 0.02 | 99 | 1005.9 | |
| 20260505224553 | 54 | 0.0 | 0.0 | 0.01 | 0.47 | 0.01 | 99 | 1006.0 | |
| 20260505223623 | 54 | 0.0 | 0.0 | 0.02 | 0.47 | 0.01 | 99 | 1006.0 | |
| 20260505222553 | 54 | 0.0 | 0.0 | 0.02 | 0.47 | 0.01 | 99 | 1006.2 | |
| 20260505221622 | 54 | 0.0 | 0.0 | 0.02 | 0.47 | 0.01 | 99 | 1006.2 | |
| 20260505220552 | 54 | 0.0 | 0.0 | 0.02 | 0.46 | 0.00 | 99 | 1006.1 | |
| 20260505215623 | 54 | 0.0 | 0.0 | 0.02 | 0.46 | 0.46 | 99 | 1006.3 | |
| 20260505214546 | 54 | 0.0 | 0.0 | 0.02 | 0.46 | 0.46 | 99 | 1006.4 | |
| 20260505213616 | 54 | 0.0 | 0.0 | 0.02 | 0.45 | 0.45 | 99 | 1006.5 | |
| 20260505212539 | 54 | 0.0 | 0.0 | 0.02 | 0.45 | 0.45 | 99 | 1006.5 | |
| 20260505211609 | 54 | 0.0 | 0.0 | 0.02 | 0.45 | 0.45 | 99 | 1006.5 | |
| 20260505210539 | 54 | 0.0 | 0.0 | 0.04 | 0.44 | 0.44 | 99 | 1006.7 | |
| 20260505205608 | 54 | 0.0 | 0.0 | 0.06 | 0.44 | 0.44 | 99 | 1006.8 | |
| 20260505204532 | 55 | 0.0 | 0.0 | 0.07 | 0.44 | 0.44 | 99 | 1006.8 | |
| 20260505203602 | 55 | 0.0 | 0.0 | 0.06 | 0.43 | 0.43 | 99 | 1006.9 | |
| 20260505202627 | 55 | 0.0 | 0.0 | 0.06 | 0.43 | 0.43 | 99 | 1006.9 | |
| 20260505201548 | 55 | 0.0 | 0.0 | 0.07 | 0.43 | 0.43 | 99 | 1006.9 | |
| 20260505200619 | 55 | 0.0 | 0.0 | 0.07 | 0.40 | 0.40 | 99 | 1006.8 | |
| 20260505195543 | 55 | 0.0 | 0.0 | 0.07 | 0.38 | 0.38 | 99 | 1006.8 | |
| 20260505194612 | 55 | 0.0 | 0.0 | 0.07 | 0.37 | 0.37 | 99 | 1006.8 | |
| 20260505193542 | 55 | 0.0 | 0.0 | 0.07 | 0.37 | 0.37 | 99 | 1006.8 | |
| 20260505192612 | 55 | 0.0 | 0.0 | 0.07 | 0.37 | 0.37 | 99 | 1006.7 | |
| 20260505191542 | 55 | 0.0 | 0.0 | 0.07 | 0.35 | 0.35 | 99 | 1006.8 | |
| 20260505190606 | 55 | 0.0 | 0.0 | 0.05 | 0.33 | 0.33 | 99 | 1006.7 | |
| 20260505185531 | 55 | 0.0 | 0.0 | 0.04 | 0.31 | 0.31 | 99 | 1006.7 | |
| 20260505184555 | 55 | 0.0 | 0.0 | 0.02 | 0.30 | 0.30 | 99 | 1006.8 | |
| 20260505183622 | 55 | 0.0 | 0.0 | 0.04 | 0.30 | 0.30 | 99 | 1006.8 | |
| 20260505182552 | 56 | 0.0 | 0.0 | 0.04 | 0.30 | 0.30 | 99 | 1006.8 | |
| 20260505181623 | 56 | 0.0 | 0.0 | 0.04 | 0.28 | 0.28 | 99 | 1006.9 | |
| 20260505180552 | 56 | 0.0 | 0.0 | 0.05 | 0.28 | 0.28 | 99 | 1006.8 | |
| 20260505175623 | 56 | 0.0 | 0.0 | 0.07 | 0.27 | 0.27 | 99 | 1006.9 | |
| 20260505174552 | 56 | 0.0 | 0.0 | 0.08 | 0.27 | 0.27 | 99 | 1006.9 | |
| 20260505173622 | 56 | 0.0 | 0.0 | 0.09 | 0.26 | 0.26 | 99 | 1007.0 | |
| 20260505172552 | 56 | 0.0 | 0.0 | 0.13 | 0.26 | 0.26 | 99 | 1007.1 | |
| 20260505171623 | 56 | 0.0 | 0.0 | 0.20 | 0.25 | 0.25 | 99 | 1007.1 | |
| 20260505170552 | 56 | 0.0 | 0.0 | 0.21 | 0.24 | 0.24 | 99 | 1007.2 | |
| 20260505165622 | 56 | 0.0 | 0.0 | 0.20 | 0.20 | 0.20 | 99 | 1007.3 | |
| 20260505164552 | 56 | 0.0 | 0.0 | 0.19 | 0.19 | 0.19 | 99 | 1007.2 | |
| 20260505163622 | 56 | 248 | 0.0 | 1.7 | 0.17 | 0.17 | 0.17 | 99 | 1007.1 |
| 20260505162552 | 57 | 286 | 0.0 | 3.5 | 0.13 | 0.13 | 0.13 | 98 | 1007.1 |
| 20260505161622 | 57 | 263 | 1.7 | 3.5 | 0.05 | 0.05 | 0.05 | 96 | 1006.9 |
| 20260505160552 | 59 | 272 | 3.5 | 7.8 | 0.02 | 0.04 | 0.02 | 92 | 1007.1 |
| 20260505152552 | 62 | 0.0 | 0.0 | 0.00 | 0.02 | 0.00 | 80 | 1007.0 | |
| 20260505151622 | 63 | 0.0 | 0.0 | 0.00 | 0.05 | 0.00 | 79 | 1007.0 | |
| 20260505150552 | 63 | 0.0 | 0.0 | 0.00 | 0.06 | 0.00 | 75 | 1007.1 | |
| 20260505140539 | 62 | 293 | 0.0 | 1.7 | 0.00 | 0.12 | 0.00 | 79 | 1007.6 |
| 20260505124532 | 62 | 0.0 | 1.7 | 0.00 | 0.12 | 0.00 | 74 | 1008.3 | |
| 20260505123603 | 62 | 0.0 | 1.7 | 0.00 | 0.12 | 0.00 | 74 | 1008.3 | |
| 20260505122532 | 61 | 252 | 0.9 | 1.7 | 0.00 | 0.12 | 0.00 | 74 | 1008.3 |
| 20260505121551 | 62 | 0.0 | 0.0 | 0.00 | 0.12 | 0.00 | 74 | 1008.4 | |
| 20260505120619 | 61 | 0.0 | 0.0 | 0.00 | 0.12 | 0.00 | 74 | 1008.5 | |
| 20260505115547 | 62 | 0.0 | 0.0 | 0.00 | 0.12 | 0.00 | 73 | 1008.6 | |
| 20260505114619 | 61 | 243 | 0.9 | 1.7 | 0.00 | 0.12 | 0.00 | 72 | 1008.6 |
| 20260505113547 | 62 | 231 | 1.7 | 3.5 | 0.00 | 0.12 | 0.00 | 73 | 1008.7 |
| 20260505112619 | 62 | 267 | 0.9 | 3.5 | 0.00 | 0.12 | 0.00 | 75 | 1008.8 |